User: anonymous
Location: Caltech
(34.1382°N, 118.1253°W)
Time: 00:55:33
(UTC-07:00)
Language:

Cosmos 1758 Rocket - Orbit

View from above orbital plane
View from above orbital plane
View from above satellite
View from above satellite

Ground track
Ground track

The orbit data is extracted from the following two-line orbital elements,

1 16792U 86046B   14261.46614052  .00000404  00000-0  47080-4 0  5673
2 16792 082.4815 065.6658 0023936 357.3233 057.2356 14.82619671526275
Epoch (UTC): 18 September 2014 11:11:14
Eccentricity: 0.0023936
inclination: 82.4815°
perigee height: 604 km
apogee height: 638 km
right ascension of ascending node: 65.6658°
argument of perigee: 357.3233°
revolutions per day: 14.82619671
mean anomaly at epoch: 57.2356°
orbit number at epoch: 52627

The dashed part of the orbit path shows where the satellite is in the earth's shadow,  

DLR